星链-37150(STARLINK-37150)

导读

STARLINK-37150(NORAD编号68315)是SpaceX星链(Starlink)星座中的一颗卫星,属于星链卫星互联网项目的组网卫星,运行在近地轨道,主要为全球提供高速低延迟互联网接入服务。 星链卫星通常由猎鹰9号火箭发射,该卫星继承了星链星座的设计,配备星间激光通信链路与轨道机动系统,可降低通信延迟并规避空间碎片。目前该卫星正常在轨运行,助力星链扩展全球覆盖范围,支撑消费互联网、海事航空联网等多场景应用。

基本信息
目录编号:
68315
目录名称:
STARLINK-37150
国际标识:
2026-057X
轨道中心:
EARTH
卫星名称:
星链-37150
卫星全名:
星链-37150(STARLINK-37150)
卫星状态:
在轨 (已飞行177 天)
发射日期:
2026-03-20 UTC
国别 :
美国 (US)
星等 :
--
该卫星已列入 空间交会检测服务 Space Conjunction Data Service (SCDS) ,当前飞行风险评估等级: 无高风险
轨道信息
数据来源 国际轨道数据
星历时间: 2026-09-13T05:45:41+0800
12小时前
查看轨道信息
半长轴: 6843.648km
偏心率: 0.0001474
轨道倾角: 97.286°
近地点辐角 95.377°
升交点赤经 21.468°
平近点角 264.764°
近地点: 464.502km
远地点: 466.52km
周期: 93.906分钟
每日圈数: 15.334559
详细信息
固有亮度:
5
最大亮度:
2.5
卫星平台:
Starlink V1.0
覆盖范围:
全球
运营商:
太空探索技术公司
运营商所在国:
美国
制造商(研发单位):
太空探索技术公司
制造商所在国:
美国
使用方式:
暂无
卫星简介
Starlink 计划是 SpaceX 推出的全球卫星互联网项目,通过发射低轨道卫星,为全球尤其是偏远地区提供高速、低延迟的互联网服务。自 2019 年起,Starlink 已部署数千颗卫星,旨在缩小全球数字鸿沟,推动互联网普及。该项目还为军事、航空等行业提供通信支持,带来广泛经济效益。
2D轨道图
3D轨道图
轨道高度分析图
轨道倾角分析图
轨道综合分析图
查看轨道综合分析图
交会数据列表
事件ID 空间交会对象 最接近时刻(TCA) 交会距离 交会风险概率(CRP) 交会风险指数(CRI) 操作
CDM_260914-023605-941306-831521
2026-09-14T
02:36:22+0000
1.316 km
极远距离
6.924964E-6 低风险 0.52
CDM_260914-150606-371806-831521
2026-09-14T
15:06:21+0000
2.936 km
极远距离
9.152236E-7 极低风险 0.34
与全量物体交会距离演化趋势
与全量物体交会风险概率演化趋势